TimeEST,TemperatureF,Dew PointF,Humidity,Sea Level PressureIn,VisibilityMPH,Wind Direction,Wind SpeedMPH,Gust SpeedMPH,PrecipitationIn,Events,Conditions,WindDirDegrees,DateUTC
12:54 AM,30.9,21.0,67,30.43,-9999.0,North,-9999.0,-,N/A,,Unknown,0,2012-11-11 05:54:00
1:54 AM,32.0,21.9,66,30.43,-9999.0,North,-9999.0,-,N/A,,Unknown,0,2012-11-11 06:54:00
2:54 AM,32.0,21.9,66,30.42,-9999.0,North,-9999.0,-,N/A,,Unknown,0,2012-11-11 07:54:00
3:54 AM,33.1,23.0,66,30.42,-9999.0,North,-9999.0,-,N/A,,Unknown,0,2012-11-11 08:54:00
4:54 AM,34.0,24.1,67,30.41,-9999.0,North,-9999.0,-,N/A,,Unknown,0,2012-11-11 09:54:00
5:54 AM,34.0,25.0,70,30.43,-9999.0,North,-9999.0,-,N/A,,Unknown,0,2012-11-11 10:54:00
6:54 AM,35.1,25.0,67,30.41,-9999.0,North,-9999.0,-,N/A,,Unknown,0,2012-11-11 11:54:00
7:54 AM,36.0,28.0,73,30.43,-9999.0,North,-9999.0,-,N/A,,Unknown,0,2012-11-11 12:54:00
8:54 AM,37.9,28.0,68,30.42,-9999.0,North,-9999.0,-,N/A,,Unknown,0,2012-11-11 13:54:00
9:54 AM,43.0,30.9,62,30.42,-9999.0,North,-9999.0,-,N/A,,Unknown,0,2012-11-11 14:54:00
10:54 AM,46.9,34.0,61,30.40,-9999.0,North,-9999.0,-,N/A,,Unknown,0,2012-11-11 15:54:00
11:54 AM,50.0,35.1,57,30.37,-9999.0,North,-9999.0,-,N/A,,Unknown,0,2012-11-11 16:54:00
12:54 PM,53.1,36.0,52,30.33,-9999.0,North,-9999.0,-,N/A,,Unknown,0,2012-11-11 17:54:00
1:54 PM,55.9,37.0,49,30.31,-9999.0,North,-9999.0,-,N/A,,Unknown,0,2012-11-11 18:54:00
2:54 PM,57.9,37.9,47,30.32,-9999.0,North,-9999.0,-,N/A,,Unknown,0,2012-11-11 19:54:00
3:54 PM,57.0,37.9,49,30.33,-9999.0,North,-9999.0,-,N/A,,Unknown,0,2012-11-11 20:54:00
4:54 PM,53.1,39.0,59,30.35,-9999.0,North,-9999.0,-,N/A,,Unknown,0,2012-11-11 21:54:00
5:54 PM,48.0,37.9,68,30.37,-9999.0,North,-9999.0,-,N/A,,Unknown,0,2012-11-11 22:54:00
6:54 PM,45.0,37.9,76,30.38,-9999.0,North,-9999.0,-,N/A,,Unknown,0,2012-11-11 23:54:00
7:54 PM,41.0,36.0,82,30.39,-9999.0,North,-9999.0,-,N/A,,Unknown,0,2012-11-12 00:54:00
8:54 PM,39.0,35.1,86,30.40,-9999.0,North,-9999.0,-,N/A,,Unknown,0,2012-11-12 01:54:00
9:54 PM,37.9,35.1,89,30.39,-9999.0,North,-9999.0,-,N/A,,Unknown,0,2012-11-12 02:54:00
10:54 PM,36.0,33.1,89,30.39,-9999.0,North,-9999.0,-,N/A,,Unknown,0,2012-11-12 03:54:00
11:54 PM,36.0,34.0,93,30.39,-9999.0,North,-9999.0,-,N/A,,Unknown,0,2012-11-12 04:54:00